Weather History for Coleman, TX

Change the Weather History Date:

Wednesday, December 4, 2013

  Actual Average (KABI) Record (KABI)
Temperature  
Mean Temperature 66 °F 47 °F  
Max Temperature 83 °F 59 °F 89 °F (1954)
Min Temperature 47 °F 36 °F 15 °F (1897)
Degree Days  
Heating Degree Days 0 18  
Month to date heating degree days 69  
Since 1 July heating degree days 502  
Cooling Degree Days 0 0  
Month to date cooling degree days 0  
Year to date cooling degree days 2408  
Growing Degree Days 16 (Base 50)    
Moisture  
Dew Point 41 °F    
Average Humidity 43    
Maximum Humidity 59    
Minimum Humidity 22    
Precipitation  
Precipitation 0.00 in 0.04 in 1.86 in (1930)
Month to date precipitation 0.15  
Year to date precipitation 23.74  
Sea Level Pressure  
Sea Level Pressure 29.72 in    
Wind  
Wind Speed 10 mph (WSW)    
Max Wind Speed 20 mph    
Max Gust Speed 26 mph    
Visibility 10 miles    
Events      
T = Trace of Precipitation, MM = Missing Value Source: NWS Daily Summary

Daily Weather History Graph

Daily Weather History Graph

Search for Another Location

Airport:

Trip Planner

Search our weather history database for the weather conditions in past years. The results will help you decide how hot, cold, wet, or windy it might be!

Date:

Astronomy

Dec. 04, 2013 Rise Set
Actual Time 7:22 AM CST 5:33 PM CST
Civil Twilight 6:55 AM CST 6:00 PM CST
Nautical Twilight 6:25 AM CST 6:30 PM CST
Astronomical Twilight 5:56 AM CST 6:59 PM CST
Moon 8:54 AM CST (12/4) 7:42 PM CST (12/4)
Length of Visible Light 11h 04m
Length of Day
10h 10m
Waxing Crescent, 4% of the Moon is Illuminated
Dec 4
Waxing Crescent
Dec 9
First Quarter
Dec 17
Full
Dec 25
Last Quarter
Jan 1
New

Hourly Weather History & Observations

Time (CST) Temp. Dew Point Humidity Pressure Visibility Wind Dir Wind Speed Gust Speed Precip Events Conditions
12:15 AM 53.6 °F 37.0 °F 53% 29.66 in 10.0 mi SSW 3.5 mph - N/A   Clear
12:35 AM 55.6 °F 37.6 °F 51% 29.65 in 10.0 mi SSW 3.5 mph - N/A   Clear
12:55 AM 56.1 °F 38.5 °F 52% 29.64 in 10.0 mi SSW 6.9 mph - N/A   Clear
1:15 AM 56.5 °F 39.0 °F 52% 29.63 in 10.0 mi SSW 6.9 mph - N/A   Clear
1:35 AM 57.7 °F 39.2 °F 50% 29.64 in 10.0 mi SSW 10.4 mph - N/A   Clear
1:55 AM 56.8 °F 39.6 °F 52% 29.64 in 10.0 mi SW 8.1 mph - N/A   Clear
2:15 AM 56.1 °F 39.9 °F 55% 29.64 in 10.0 mi SSW 8.1 mph - N/A   Clear
2:35 AM 57.2 °F 40.1 °F 53% 29.65 in 10.0 mi SSW 9.2 mph - N/A   Clear
2:55 AM 57.0 °F 40.1 °F 53% 29.65 in 10.0 mi SSW 10.4 mph - N/A   Clear
3:15 AM 58.1 °F 40.3 °F 52% 29.65 in 10.0 mi SW 11.5 mph - N/A   Clear
3:35 AM 58.6 °F 40.1 °F 50% 29.66 in 10.0 mi SW 11.5 mph - N/A   Clear
3:55 AM 58.3 °F 40.3 °F 51% 29.66 in 10.0 mi SSW 10.4 mph - N/A   Clear
4:15 AM 59.2 °F 40.3 °F 50% 29.67 in 10.0 mi SSW 10.4 mph - N/A   Clear
4:35 AM 59.5 °F 40.5 °F 49% 29.67 in 10.0 mi SW 11.5 mph - N/A   Clear
4:55 AM 60.3 °F 40.6 °F 48% 29.67 in 10.0 mi SW 11.5 mph - N/A   Clear
5:15 AM 60.1 °F 41.0 °F 49% 29.67 in 10.0 mi SW 12.7 mph - N/A   Clear
5:35 AM 60.1 °F 41.0 °F 49% 29.67 in 10.0 mi SSW 10.4 mph - N/A   Clear
5:55 AM 60.1 °F 41.0 °F 49% 29.67 in 10.0 mi SW 8.1 mph - N/A   Clear
6:15 AM 60.8 °F 41.7 °F 49% 29.68 in 10.0 mi WSW 10.4 mph - N/A   Clear
6:35 AM 62.8 °F 42.3 °F 47% 29.69 in 10.0 mi SW 18.4 mph 21.9 mph N/A   Clear
6:55 AM 62.8 °F 42.8 °F 48% 29.71 in 10.0 mi WSW 16.1 mph 21.9 mph N/A   Clear
7:15 AM 62.2 °F 42.4 °F 48% 29.71 in 10.0 mi WSW 17.3 mph 20.7 mph N/A   Clear
7:35 AM 61.7 °F 42.8 °F 50% 29.71 in 10.0 mi SW 15.0 mph 20.7 mph N/A   Clear
7:55 AM 62.4 °F 43.2 °F 49% 29.72 in 10.0 mi WSW 12.7 mph - N/A   Clear
8:15 AM 61.9 °F 43.7 °F 51% 29.72 in 10.0 mi WSW 10.4 mph - N/A   Clear
8:35 AM 63.1 °F 44.2 °F 50% 29.73 in 10.0 mi SW 8.1 mph 16.1 mph N/A   Clear
8:55 AM 64.4 °F 44.6 °F 49% 29.74 in 10.0 mi WSW 10.4 mph - N/A   Clear
9:15 AM 65.3 °F 44.6 °F 47% 29.74 in 10.0 mi WSW 11.5 mph - N/A   Clear
9:35 AM 66.7 °F 45.3 °F 46% 29.75 in 10.0 mi WSW 6.9 mph - N/A   Clear
9:55 AM 69.6 °F 45.0 °F 41% 29.75 in 10.0 mi WSW 9.2 mph - N/A   Clear
10:15 AM 72.5 °F 43.3 °F 35% 29.76 in 10.0 mi WSW 9.2 mph 17.3 mph N/A   Clear
10:35 AM 74.7 °F 44.1 °F 33% 29.75 in 10.0 mi SW 9.2 mph - N/A   Clear
10:55 AM 76.8 °F 43.7 °F 31% 29.75 in 10.0 mi WSW 10.4 mph - N/A   Clear
11:15 AM 79.0 °F 43.7 °F 29% 29.74 in 10.0 mi WSW 11.5 mph - N/A   Clear
11:35 AM 80.8 °F 43.3 °F 27% 29.73 in 10.0 mi West 11.5 mph - N/A   Clear
11:55 AM 82.6 °F 42.3 °F 24% 29.72 in 10.0 mi WSW 15.0 mph 19.6 mph N/A   Clear
12:15 PM 83.3 °F 41.7 °F 23% 29.72 in 10.0 mi WSW 17.3 mph 23.0 mph N/A   Clear
12:35 PM 81.7 °F 42.3 °F 25% 29.71 in 10.0 mi West 16.1 mph 19.6 mph N/A   Clear
12:55 PM 82.6 °F 42.8 °F 25% 29.70 in 10.0 mi WSW 16.1 mph 21.9 mph N/A   Clear
1:15 PM 82.8 °F 42.3 °F 24% 29.69 in 10.0 mi West 15.0 mph 21.9 mph N/A   Clear
1:35 PM 83.5 °F 42.1 °F 23% 29.68 in 10.0 mi WSW 19.6 mph - N/A   Clear
1:55 PM 83.8 °F 41.5 °F 22% 29.67 in 10.0 mi WSW 17.3 mph 26.5 mph N/A   Clear
2:15 PM 83.5 °F 41.7 °F 23% 29.67 in 10.0 mi WSW 15.0 mph 23.0 mph N/A   Clear
2:35 PM 83.3 °F 41.0 °F 22% 29.67 in 10.0 mi West 11.5 mph 23.0 mph N/A   Clear
2:55 PM 83.5 °F 41.7 °F 23% 29.66 in 10.0 mi West 11.5 mph 20.7 mph N/A   Clear
3:15 PM 83.7 °F 42.1 °F 23% 29.66 in 10.0 mi WSW 15.0 mph 20.7 mph N/A   Clear
3:35 PM 82.8 °F 42.4 °F 24% 29.67 in 10.0 mi SW 16.1 mph 20.7 mph N/A   Clear
3:55 PM 83.3 °F 42.6 °F 24% 29.67 in 10.0 mi WSW 8.1 mph 11.5 mph N/A   Clear
4:15 PM 82.0 °F 43.0 °F 25% 29.68 in 10.0 mi WSW 10.4 mph - N/A   Clear
4:35 PM 80.4 °F 43.0 °F 26% 29.69 in 10.0 mi West 6.9 mph - N/A   Clear
4:55 PM 78.6 °F 43.5 °F 29% 29.70 in 10.0 mi WNW 4.6 mph - N/A   Clear
5:15 PM 76.6 °F 43.9 °F 31% 29.70 in 10.0 mi NW 3.5 mph - N/A   Clear
5:35 PM 75.4 °F 43.7 °F 32% 29.71 in 10.0 mi NW 5.8 mph - N/A   Clear
5:55 PM 73.6 °F 43.7 °F 34% 29.71 in 10.0 mi NW 5.8 mph - N/A   Clear
6:15 PM 70.2 °F 45.7 °F 41% 29.73 in 10.0 mi NW 4.6 mph - N/A   Clear
6:35 PM 65.8 °F 43.7 °F 45% 29.74 in 10.0 mi NE 12.7 mph 17.3 mph N/A   Clear
6:55 PM 62.1 °F 41.4 °F 47% 29.75 in 10.0 mi NE 5.8 mph - N/A   Clear
7:15 PM 59.9 °F 41.4 °F 50% 29.75 in 10.0 mi NNE 5.8 mph - N/A   Clear
7:35 PM 59.0 °F 41.4 °F 52% 29.77 in 10.0 mi NNE 4.6 mph - N/A   Clear
7:55 PM 57.4 °F 41.5 °F 56% 29.77 in 10.0 mi NNE 5.8 mph - N/A   Clear
8:15 PM 56.7 °F 41.2 °F 56% 29.79 in 10.0 mi NNE 8.1 mph - N/A   Clear
8:35 PM 56.3 °F 41.0 °F 57% 29.79 in 10.0 mi North 6.9 mph - N/A   Clear
8:55 PM 56.3 °F 39.7 °F 54% 29.80 in 10.0 mi NNE 8.1 mph - N/A   Clear
9:15 PM 56.3 °F 38.5 °F 51% 29.81 in 10.0 mi NNE 10.4 mph - N/A   Clear
9:35 PM 54.5 °F 40.1 °F 58% 29.82 in 10.0 mi North 9.2 mph - N/A   Clear
9:55 PM 54.5 °F 38.8 °F 56% 29.82 in 10.0 mi NNE 12.7 mph - N/A   Clear
10:15 PM 53.8 °F 38.5 °F 56% 29.83 in 10.0 mi NNE 11.5 mph - N/A   Clear
10:35 PM 52.9 °F 37.9 °F 57% 29.85 in 10.0 mi North 12.7 mph - N/A   Clear
10:55 PM 52.0 °F 37.8 °F 58% 29.85 in 10.0 mi North 12.7 mph - N/A   Clear
11:15 PM 50.7 °F 36.7 °F 59% 29.86 in 10.0 mi North 16.1 mph - N/A   Clear
11:35 PM 48.6 °F 33.8 °F 57% 29.87 in 10.0 mi North 17.3 mph 23.0 mph N/A   Clear
11:55 PM 47.5 °F 33.3 °F 58% 29.88 in 10.0 mi North 19.6 mph 25.3 mph N/A   Clear